Back to catalog

STARLINK-3391

AliveCommunicationsVLEO
NORAD 51117·PAYLOAD·🇺🇸 United States

Launched Jan 19, 2022 from Cape Canaveral Space Force Station

Loading…

Next Passes (next 24 hours)

TLE

FreshSource: CelesTrak SupGP

Epoch: Sep 14, 2026, 13:35 UTC

1 51117C 22005P   26257.56645833  .00026254  00000+0  75141-3 0  2572
2 51117  53.1592 154.0996 0001236  94.6855 279.0513 15.35374981    19

Track STARLINK-3391 in real time with AllMySat

Download on the App Store